#timestamp,LO_Frequency,Hit,StdDev 
1585342815.1,286047001.1,N
1585342816.0,286047001.1,N
1585342835.8,286046999.7,N
1585342855.6,286047002.4,N
1585342875.5,286047001.4,N
1585342895.3,286047001.5,N
1585342915.1,286046998.5,N
1585342935.9,286047000.8,N
1585342955.7,286046998.3,N
1585342975.6,286046999.1,N
1585342995.4,286047002.1,N
1585343015.2,286047001.7,N
1585343035.1,286047002.5,N
1585343036.0,286047002.5,N
1585343055.8,286046999.9,N
1585343075.7,286047001.6,N
1585343095.5,286047002.1,N
1585343115.3,286047002.3,N
1585343135.2,286047002.0,N
1585343155.0,286046999.7,N
1585343155.9,286046999.7,N
1585343175.7,286047000.9,N
1585343195.6,286046998.3,N
1585343215.4,286047000.8,N
1585343235.3,286047001.7,N
1585343255.1,286047004.2,Y
1585343275.8,286047001.9,P
1585343295.7,286047001.3,N
1585343315.5,286047004.2,P
1585343335.4,286047004.0,Y
1585343355.2,286047002.4,P
1585343375.1,286047001.9,P
1585343376.0,286047001.9,P
1585343395.8,286047002.5,Y
1585343415.6,286046998.1,P
1585343435.5,286047001.1,N
1585343455.3,286047000.7,N
1585343475.1,286046998.3,N
1585343495.9,286046998.4,N
1585343515.7,286046998.7,N
1585343535.6,286046997.3,N
1585343555.4,286046996.1,N
1585343575.2,286046995.1,N
1585343595.1,286046998.0,N
1585343596.0,286046998.0,N
1585343615.8,286046995.0,N
1585343635.7,286046997.8,N
1585343655.5,286046997.1,N
1585343675.3,286046997.0,N
1585343695.2,286046995.4,N
1585343715.0,286046995.4,N
1585343715.9,286046995.4,N
1585343735.7,286046997.4,N
1585343755.6,286046996.6,N
1585343775.4,286046999.3,N
1585343795.3,286046998.9,N
1585343815.1,286046997.6,N
1585343816.0,286046997.6,N
1585343835.8,286046994.0,Y
1585343855.7,286046994.9,P
1585343875.5,286046999.2,N
1585343895.4,286046999.6,N
1585343915.2,286046999.0,N
1585343935.0,286046998.3,N
1585343935.9,286046998.3,N
1585343955.8,286047000.0,N
1585343975.6,286046995.9,N
1585343995.4,286046996.8,N
1585344015.3,286046999.0,N
1585344035.1,286046995.2,Y
1585344055.9,286046997.3,P
1585344075.7,286046998.6,P
1585344095.5,286047000.0,N
1585344115.4,286047002.1,N
1585344135.2,286047002.1,N
1585344155.1,286047001.5,N
1585344156.0,286047001.5,N
1585344175.8,286047004.2,N
1585344195.6,286046999.7,N
1585344215.5,286047002.1,N
1585344235.3,286047000.2,N
1585344255.1,286046999.7,N
1585344275.9,286047001.6,N
1585344295.7,286047002.0,N
1585344315.6,286046998.5,N
1585344335.4,286047000.5,N
1585344355.2,286047001.2,N
1585344375.1,286046998.7,N
1585344376.0,286046998.7,N
1585344395.8,286047001.1,N
1585344415.7,286047002.5,N
1585344435.5,286046999.9,N
1585344455.3,286047000.2,N
1585344475.2,286047001.2,N
1585344495.0,286047000.1,N
1585344495.9,286047000.1,N
1585344515.7,286047000.2,N
1585344535.6,286047001.6,N
1585344555.4,286046999.3,N
1585344575.3,286047001.2,N
1585344595.1,286046998.2,N
1585344615.8,286047001.9,N
1585344635.7,286047002.5,N
1585344655.5,286047001.3,N
1585344675.4,286047003.6,N
1585344695.2,286047003.7,N
1585344715.0,286047002.3,N
1585344715.9,286047002.3,N
1585344735.8,286047002.5,N
1585344755.6,286046999.0,N
1585344775.4,286046996.8,N
1585344795.3,286046998.4,N
1585344815.1,286047000.5,N
1585344835.9,286047012.9,Y
1585344855.7,286047015.6,P
1585344875.5,286047014.0,N
1585344895.4,286047008.9,N
1585344915.2,286047004.8,N
1585344935.1,286047002.9,N
1585344936.0,286047002.9,N
1585344955.8,286047001.9,N
1585344975.6,286046999.7,N
1585344995.5,286046998.4,N
1585345015.3,286046999.0,N
1585345035.2,286046999.2,N
1585345055.9,286046997.2,N
1585345075.7,286046997.0,N
1585345095.6,286046999.1,N
1585345115.4,286046997.1,N
1585345135.2,286046996.6,N
1585345155.1,286046997.2,N
1585345156.0,286046997.2,N
1585345175.8,286046995.0,N
1585345195.7,286046997.7,N
1585345215.5,286046995.2,N
1585345235.3,286046995.4,N
1585345255.2,286046997.9,N
1585345275.0,286046996.9,N
1585345275.9,286046996.9,N
1585345295.8,286046998.9,N
1585345315.6,286046996.9,N
1585345335.4,286046999.3,N
1585345355.3,286046998.5,N
1585345375.1,286046998.7,N
1585345395.8,286047001.0,N
1585345415.7,286047001.2,N
1585345435.5,286046998.8,N
1585345455.4,286046998.3,N
1585345475.2,286046996.8,N
1585345495.0,286046997.3,N
1585345495.9,286046997.3,N
1585345515.8,286046997.0,N
1585345535.6,286046995.6,Y
1585345555.5,286047016.9,P
1585345575.3,286047017.5,N
1585345595.1,286047018.8,N
1585345615.9,286047015.2,N
1585345635.7,286047012.2,N
1585345655.5,286047008.3,N
1585345675.4,286047006.8,N
1585345695.2,286047003.1,N
1585345715.1,286047000.3,N
1585345716.0,286047000.3,N
1585345735.8,286046998.6,N
1585345755.6,286046999.3,N
1585345775.5,286046996.9,N
1585345795.3,286046999.5,N
1585345815.2,286046999.6,N
1585345835.9,286046998.8,N
1585345855.7,286046998.4,N
1585345875.6,286047001.2,N
1585345895.4,286046996.9,N
1585345915.2,286046998.5,N
1585345935.1,286047001.0,N
1585345936.0,286047001.0,N
1585345955.8,286047000.3,N
1585345975.7,286047002.8,N
1585345995.5,286047000.3,N
1585346015.3,286046998.1,N
1585346035.2,286046999.3,N
1585346055.0,286046998.4,N
1585346055.9,286046998.4,N
1585346075.7,286047000.9,N
1585346095.6,286046999.7,N
1585346115.4,286047000.2,N
1585346135.3,286047000.5,N
1585346155.1,286047001.0,N
1585346175.8,286046999.1,N
1585346195.7,286046995.3,N
1585346215.5,286046994.0,N
1585346235.4,286046994.0,Y
1585346255.2,286046995.0,P
1585346275.0,286046995.4,N
1585346275.9,286046995.4,N
1585346295.8,286046999.5,N
1585346315.6,286046998.2,N
1585346335.4,286047001.2,N
1585346355.3,286047011.9,Y
1585346375.1,286047003.5,P
1585346395.9,286047005.7,N
